Location: ??????????
(44.2167°N, 135.5333°E)
Time: 15:08:53
(UTC+00:00)

Cosmos 332 Rocket - Pass Details

Date: 15 June 2025
Orbit: 675 x 693 km, 74.0° (Epoch: 15 July)

Event Time Altitude Azimuth Distance (km) Brightness Sun altitude
Exits shadow 16:24:08 41° 178° (S) 998 4.1 -19.7°
Maximum altitude 16:25:45 70° 108° (ESE) 733 3.8 -19.6°
Drops below altitude 10° 16:30:33 10° 25° (NNE) 2,142 7.6 -19.2°
Sets 16:32:52 0° 23° (NNE) 3,059 8.8 -19.1°
